When you browse on this site, cookies collect data to enhance your experience and personalize the content and advertising you see.
Visit our Privacy Policy to learn more. By continuing to use the site, you agree to this use of cookies and data.
  • In Sweden
  • List of Countries
  • For 7 days
  • Water Temperature
  • Satellite Maps
  • Weather Map
  • Weather Widgets
  • user-avatar
    Login

    Hourly Weather Ballerupa

    Today, 19 May, Sunday

    Time Temperature Precipitation Wind Pressure Humidity
    00:00 +11°C° 0 mm 3 mps 755 mmHg 96%
    01:00 +11°C° 0 mm 4 mps 755 mmHg 97%
    02:00 +11°C° 0 mm 4 mps 755 mmHg 96%
    03:00 +12°C° 0 mm 4 mps 755 mmHg 96%
    04:00 +12°C° 0 mm 4 mps 755 mmHg 96%
    05:00 +13°C° 0 mm 4 mps 755 mmHg 94%
    06:00 +13°C° 0 mm 4 mps 755 mmHg 92%
    07:00 +14°C° 0 mm 4 mps 755 mmHg 88%
    08:00 +15°C° 0 mm 4 mps 755 mmHg 84%
    09:00 +17°C° 0 mm 4 mps 755 mmHg 80%
    10:00 +18°C° 0 mm 4 mps 755 mmHg 77%
    11:00 +19°C° 0 mm 4 mps 755 mmHg 74%
    12:00 +20°C° 0 mm 3 mps 755 mmHg 72%
    13:00 +21°C° 0 mm 3 mps 755 mmHg 69%
    14:00 +21°C° 0 mm 3 mps 754 mmHg 68%
    15:00 +21°C° 0 mm 3 mps 754 mmHg 68%
    16:00 +21°C° 0 mm 3 mps 754 mmHg 67%
    17:00 +20°C° 0 mm 3 mps 754 mmHg 72%
    18:00 +19°C° 0 mm 3 mps 754 mmHg 77%
    19:00 +18°C° 0 mm 3 mps 754 mmHg 81%
    20:00 +17°C° 0 mm 2 mps 754 mmHg 85%
    21:00 +16°C° 0 mm 2 mps 754 mmHg 89%
    22:00 +14°C° 0 mm 2 mps 753 mmHg 93%
    23:00 +14°C° 0 mm 2 mps 753 mmHg 94%

    Tomorrow, 20 May, Monday

    Time Temperature Precipitation Wind Pressure Humidity
    00:00 +14°C° 0 mm 2 mps 753 mmHg 95%
    01:00 +14°C° 0 mm 1 mps 753 mmHg 96%
    02:00 +13°C° 0 mm 1 mps 752 mmHg 96%
    03:00 +13°C° 0 mm 1 mps 752 mmHg 97%
    04:00 +13°C° 0 mm 1 mps 752 mmHg 97%
    05:00 +14°C° 0 mm 1 mps 752 mmHg 96%
    06:00 +15°C° 0 mm 1 mps 752 mmHg 94%
    07:00 +15°C° 0 mm 1 mps 752 mmHg 92%
    08:00 +16°C° 0 mm 1 mps 752 mmHg 90%
    09:00 +16°C° 0 mm 1 mps 752 mmHg 88%
    10:00 +18°C° 0 mm 1 mps 752 mmHg 86%
    11:00 +19°C° 0 mm 1 mps 752 mmHg 82%
    12:00 +20°C° 0 mm 1 mps 752 mmHg 78%
    13:00 +20°C° 0 mm 2 mps 752 mmHg 75%
    14:00 +20°C° 0 mm 2 mps 752 mmHg 75%
    15:00 +20°C° 0 mm 2 mps 752 mmHg 75%
    16:00 +20°C° 0 mm 2 mps 752 mmHg 75%
    17:00 +19°C° 0 mm 2 mps 752 mmHg 78%
    18:00 +19°C° 0 mm 2 mps 752 mmHg 81%
    19:00 +18°C° 0 mm 3 mps 751 mmHg 84%
    20:00 +17°C° 0 mm 3 mps 752 mmHg 87%
    21:00 +16°C° 0 mm 3 mps 752 mmHg 90%
    22:00 +14°C° 0 mm 3 mps 752 mmHg 94%
    23:00 +14°C° 0 mm 3 mps 752 mmHg 94%

    Day after tomorrow, 21 May, Tuesday

    Time Temperature Precipitation Wind Pressure Humidity
    00:00 +14°C° 0 mm 3 mps 752 mmHg 94%
    01:00 +14°C° 0 mm 3 mps 752 mmHg 95%
    02:00 +14°C° 0 mm 3 mps 752 mmHg 95%
    03:00 +14°C° 0 mm 3 mps 752 mmHg 95%
    04:00 +15°C° 0 mm 2 mps 752 mmHg 95%
    05:00 +14°C° 0 mm 3 mps 752 mmHg 94%
    06:00 +16°C° 0 mm 3 mps 752 mmHg 93%
    07:00 +16°C° 0 mm 3 mps 752 mmHg 92%
    08:00 +17°C° 0 mm 3 mps 752 mmHg 91%
    09:00 +17°C° 0 mm 2 mps 752 mmHg 91%
    10:00 +17°C° 0 mm 2 mps 752 mmHg 90%
    11:00 +18°C° 0.1 mm 2 mps 752 mmHg 90%
    12:00 +18°C° 0.1 mm 2 mps 752 mmHg 90%
    13:00 +18°C° 0.1 mm 2 mps 753 mmHg 90%
    14:00 +18°C° 0.3 mm 2 mps 753 mmHg 91%
    15:00 +18°C° 0.3 mm 2 mps 752 mmHg 92%
    16:00 +18°C° 0.3 mm 2 mps 752 mmHg 92%
    17:00 +17°C° 0.7 mm 2 mps 752 mmHg 93%
    18:00 +17°C° 0.7 mm 2 mps 752 mmHg 93%
    19:00 +17°C° 0.7 mm 2 mps 752 mmHg 94%
    20:00 +17°C° 1.3 mm 2 mps 752 mmHg 95%
    21:00 +16°C° 1.3 mm 1 mps 752 mmHg 96%
    22:00 +16°C° 1.3 mm 1 mps 753 mmHg 97%
    23:00 +16°C° 0.1 mm 1 mps 753 mmHg 97%

    22 May, Wednesday

    Time Temperature Precipitation Wind Pressure Humidity
    00:00 +15°C° 0.1 mm 1 mps 752 mmHg 97%
    01:00 +15°C° 0.1 mm 1 mps 752 mmHg 97%
    02:00 +15°C° 0 mm 1 mps 752 mmHg 97%
    03:00 +14°C° 0 mm 0 mps 752 mmHg 97%
    04:00 +13°C° 0 mm 0 mps 752 mmHg 97%
    05:00 +14°C° 0.1 mm 0 mps 752 mmHg 97%
    06:00 +15°C° 0.1 mm 1 mps 753 mmHg 97%
    07:00 +16°C° 0.1 mm 1 mps 753 mmHg 96%
    08:00 +16°C° 0.2 mm 2 mps 753 mmHg 96%
    09:00 +15°C° 0.2 mm 2 mps 753 mmHg 96%
    10:00 +15°C° 0.2 mm 2 mps 754 mmHg 96%
    11:00 +14°C° 0.2 mm 3 mps 754 mmHg 96%
    12:00 +13°C° 0.2 mm 4 mps 754 mmHg 95%
    13:00 +13°C° 0.2 mm 5 mps 754 mmHg 94%
    14:00 +13°C° 0.1 mm 6 mps 755 mmHg 93%
    15:00 +13°C° 0.1 mm 6 mps 755 mmHg 91%
    16:00 +13°C° 0.1 mm 6 mps 755 mmHg 89%
    17:00 +13°C° 0 mm 6 mps 756 mmHg 85%
    18:00 +12°C° 0 mm 7 mps 756 mmHg 81%
    19:00 +12°C° 0 mm 7 mps 756 mmHg 76%
    20:00 +11°C° 0 mm 7 mps 757 mmHg 75%
    21:00 +10°C° 0 mm 7 mps 757 mmHg 73%
    22:00 +9°C° 0 mm 7 mps 757 mmHg 72%
    23:00 +8°C° 0 mm 7 mps 758 mmHg 72%

    23 May, Thursday

    Time Temperature Precipitation Wind Pressure Humidity
    00:00 +8°C° 0 mm 7 mps 758 mmHg 73%
    01:00 +8°C° 0 mm 7 mps 758 mmHg 74%
    02:00 +8°C° 0 mm 7 mps 758 mmHg 75%
    03:00 +6°C° 0 mm 7 mps 759 mmHg 77%
    04:00 +7°C° 0 mm 6 mps 759 mmHg 78%
    05:00 +8°C° 0 mm 6 mps 759 mmHg 77%
    06:00 +9°C° 0 mm 6 mps 759 mmHg 75%
    07:00 +9°C° 0 mm 5 mps 759 mmHg 74%
    08:00 +10°C° 0 mm 5 mps 759 mmHg 71%
    09:00 +12°C° 0 mm 5 mps 760 mmHg 69%
    10:00 +13°C° 0 mm 5 mps 760 mmHg 66%
    11:00 +14°C° 0 mm 5 mps 760 mmHg 63%
    12:00 +14°C° 0 mm 5 mps 760 mmHg 61%
    13:00 +15°C° 0 mm 5 mps 760 mmHg 59%
    14:00 +15°C° 0 mm 6 mps 760 mmHg 59%
    15:00 +15°C° 0 mm 6 mps 759 mmHg 59%
    16:00 +16°C° 0 mm 6 mps 759 mmHg 59%
    17:00 +15°C° 0 mm 5 mps 759 mmHg 63%
    18:00 +14°C° 0 mm 5 mps 759 mmHg 66%
    19:00 +14°C° 0 mm 4 mps 759 mmHg 70%
    20:00 +13°C° 0 mm 4 mps 759 mmHg 72%
    21:00 +12°C° 0 mm 4 mps 759 mmHg 73%
    22:00 +11°C° 0 mm 4 mps 759 mmHg 75%
    23:00 +10°C° 0 mm 4 mps 758 mmHg 75%

    24 May, Friday

    Time Temperature Precipitation Wind Pressure Humidity
    00:00 +10°C° 0 mm 3 mps 758 mmHg 75%
    01:00 +9°C° 0 mm 3 mps 758 mmHg 75%
    02:00 +9°C° 0 mm 3 mps 757 mmHg 75%
    03:00 +9°C° 0 mm 3 mps 757 mmHg 75%
    04:00 +9°C° 0 mm 3 mps 757 mmHg 76%
    05:00 +10°C° 0 mm 3 mps 756 mmHg 74%
    06:00 +11°C° 0 mm 3 mps 756 mmHg 72%
    07:00 +12°C° 0 mm 4 mps 756 mmHg 70%
    08:00 +13°C° 0 mm 4 mps 755 mmHg 68%
    09:00 +14°C° 0 mm 4 mps 755 mmHg 65%
    10:00 +16°C° 0 mm 5 mps 754 mmHg 63%
    11:00 +16°C° 0 mm 5 mps 754 mmHg 62%
    12:00 +16°C° 0 mm 5 mps 753 mmHg 62%
    13:00 +17°C° 0 mm 5 mps 753 mmHg 61%
    14:00 +17°C° 0 mm 5 mps 752 mmHg 63%
    15:00 +16°C° 0 mm 6 mps 751 mmHg 64%
    16:00 +16°C° 0 mm 6 mps 750 mmHg 66%
    17:00 +15°C° 0.2 mm 6 mps 750 mmHg 71%
    18:00 +14°C° 0.2 mm 6 mps 749 mmHg 76%
    19:00 +13°C° 0.2 mm 6 mps 748 mmHg 81%
    20:00 +13°C° 0.7 mm 6 mps 748 mmHg 84%
    21:00 +13°C° 0.7 mm 5 mps 747 mmHg 86%
    22:00 +12°C° 0.7 mm 5 mps 747 mmHg 89%
    23:00 +12°C° 2.1 mm 4 mps 747 mmHg 91%
    Show more